TimeEDT,TemperatureF,Dew PointF,Humidity,Sea Level PressureIn,VisibilityMPH,Wind Direction,Wind SpeedMPH,Gust SpeedMPH,PrecipitationIn,Events,Conditions,WindDirDegrees,DateUTC
12:54 AM,70.0,64.9,84,30.09,10.0,Calm,Calm,-,N/A,,Scattered Clouds,0,2013-09-05 04:54:00
1:54 AM,68.0,64.0,87,30.08,9.0,Calm,Calm,-,N/A,,Clear,0,2013-09-05 05:54:00
2:54 AM,66.9,63.0,87,30.07,9.0,NW,3.5,-,N/A,,Clear,320,2013-09-05 06:54:00
3:54 AM,66.0,62.1,87,30.06,9.0,Calm,Calm,-,N/A,,Clear,0,2013-09-05 07:54:00
4:54 AM,66.9,62.1,84,30.06,10.0,Calm,Calm,-,N/A,,Clear,0,2013-09-05 08:54:00
5:54 AM,66.0,62.1,87,30.07,10.0,Calm,Calm,-,N/A,,Clear,0,2013-09-05 09:54:00
6:54 AM,64.9,60.1,84,30.08,10.0,Calm,Calm,-,N/A,,Partly Cloudy,0,2013-09-05 10:54:00
7:54 AM,66.9,61.0,81,30.09,10.0,Calm,Calm,-,N/A,,Partly Cloudy,0,2013-09-05 11:54:00
8:54 AM,71.1,61.0,70,30.10,10.0,Calm,Calm,-,N/A,,Partly Cloudy,0,2013-09-05 12:54:00
9:54 AM,75.9,59.0,56,30.11,10.0,North,3.5,-,N/A,,Scattered Clouds,360,2013-09-05 13:54:00
10:54 AM,77.0,55.9,48,30.11,10.0,NNW,3.5,-,N/A,,Partly Cloudy,330,2013-09-05 14:54:00
11:54 AM,80.1,55.0,42,30.11,10.0,NNE,5.8,-,N/A,,Partly Cloudy,20,2013-09-05 15:54:00
12:54 PM,82.0,50.0,33,30.10,10.0,Variable,3.5,-,N/A,,Scattered Clouds,0,2013-09-05 16:54:00
1:54 PM,84.9,50.0,30,30.09,10.0,NNW,4.6,-,N/A,,Scattered Clouds,340,2013-09-05 17:54:00
2:54 PM,84.9,51.1,31,30.08,10.0,NW,6.9,-,N/A,,Scattered Clouds,310,2013-09-05 18:54:00
3:54 PM,84.9,44.1,24,30.06,10.0,Variable,5.8,-,N/A,,Partly Cloudy,0,2013-09-05 19:54:00
4:54 PM,86.0,48.0,27,30.04,10.0,Calm,Calm,-,N/A,,Partly Cloudy,0,2013-09-05 20:54:00
5:54 PM,84.9,52.0,32,30.05,10.0,NNW,4.6,-,N/A,,Partly Cloudy,340,2013-09-05 21:54:00
6:54 PM,82.9,54.0,37,30.04,10.0,Calm,Calm,-,N/A,,Partly Cloudy,0,2013-09-05 22:54:00
7:54 PM,79.0,55.9,45,30.05,10.0,Calm,Calm,-,N/A,,Partly Cloudy,0,2013-09-05 23:54:00
8:54 PM,75.0,59.0,57,30.06,10.0,WNW,4.6,-,N/A,,Partly Cloudy,290,2013-09-06 00:54:00
9:54 PM,73.0,60.1,64,30.08,10.0,North,4.6,-,N/A,,Clear,10,2013-09-06 01:54:00
10:54 PM,73.9,59.0,59,30.10,10.0,North,3.5,-,N/A,,Clear,360,2013-09-06 02:54:00
11:54 PM,72.0,59.0,64,30.10,10.0,Calm,Calm,-,N/A,,Clear,0,2013-09-06 03:54:00